| time (UTC) | temp C | wind direction | speed KPH | gust KPH | rain 1hr cm | rain 24hr cm | rain mn cm | humidity % | barometer mb |
| 20260505011606 | 16 | 307 | 0.0 | 12.9 | 0.00 | 0.00 | 0.00 | 46 | 996.6 |
| 20260505010055 | 16 | 301 | 1.6 | 8.0 | 0.00 | 0.00 | 0.00 | 47 | 997.0 |
| 20260505004554 | 16 | 48 | 0.0 | 11.3 | 0.00 | 0.00 | 0.00 | 49 | 997.0 |
| 20260505003053 | 17 | 335 | 1.6 | 12.9 | 0.00 | 0.00 | 0.00 | 47 | 996.8 |
| 20260505001552 | 17 | 31 | 4.8 | 12.9 | 0.00 | 0.00 | 0.00 | 45 | 996.9 |
| 20260505000107 | 18 | 316 | 6.4 | 16.1 | 0.00 | 0.00 | 0.00 | 40 | 997.0 |
| 20260504234551 | 19 | 218 | 3.2 | 14.5 | 0.00 | 0.00 | 0.00 | 35 | 996.7 |
| 20260504233106 | 20 | 180 | 0.0 | 6.4 | 0.00 | 0.00 | 0.00 | 33 | 996.3 |
| 20260504231550 | 20 | 163 | 0.0 | 8.0 | 0.00 | 0.00 | 0.00 | 32 | 995.8 |
| 20260504230049 | 21 | 131 | 0.0 | 9.7 | 0.00 | 0.00 | 0.00 | 31 | 995.5 |
| 20260504224556 | 22 | 60 | 3.2 | 9.7 | 0.00 | 0.00 | 0.00 | 28 | 995.4 |
| 20260504223107 | 24 | 309 | 1.6 | 8.0 | 0.00 | 0.00 | 0.00 | 27 | 995.4 |
| 20260504221546 | 24 | 314 | 3.2 | 12.9 | 0.00 | 0.00 | 0.00 | 26 | 995.5 |
| 20260504220045 | 25 | 160 | 3.2 | 9.7 | 0.00 | 0.00 | 0.00 | 25 | 995.6 |
| 20260504214542 | 24 | 25 | 0.0 | 8.0 | 0.00 | 0.00 | 0.00 | 26 | 995.8 |
| 20260504213051 | 23 | 103 | 0.0 | 3.2 | 0.00 | 0.00 | 0.00 | 25 | 996.0 |
| 20260504211538 | 23 | 343 | 0.0 | 3.2 | 0.00 | 0.00 | 0.00 | 22 | 996.1 |
| 20260504210038 | 22 | 125 | 1.6 | 6.4 | 0.00 | 0.00 | 0.00 | 25 | 996.3 |
| 20260504204542 | 20 | 332 | 0.0 | 17.7 | 0.00 | 0.00 | 0.00 | 27 | 996.4 |
| 20260504203030 | 21 | 124 | 0.0 | 0.0 | 0.00 | 0.00 | 0.00 | 30 | 996.8 |
| 20260504201527 | 21 | 171 | 0.0 | 6.4 | 0.00 | 0.00 | 0.00 | 29 | 997.0 |
| 20260504200026 | 21 | 175 | 0.0 | 4.8 | 0.00 | 0.00 | 0.00 | 27 | 997.1 |
| 20260504194523 | 21 | 227 | 0.0 | 4.8 | 0.00 | 0.00 | 0.00 | 32 | 997.3 |
| 20260504193023 | 21 | 174 | 0.0 | 4.8 | 0.00 | 0.00 | 0.00 | 32 | 997.5 |
| 20260504191518 | 21 | 279 | 0.0 | 4.8 | 0.00 | 0.00 | 0.00 | 31 | 997.6 |
| 20260504190017 | 20 | 172 | 0.0 | 3.2 | 0.00 | 0.00 | 0.00 | 31 | 997.8 |
| 20260504184514 | 20 | 161 | 0.0 | 3.2 | 0.00 | 0.00 | 0.00 | 36 | 998.0 |
| 20260504183013 | 19 | 154 | 0.0 | 4.8 | 0.00 | 0.00 | 0.00 | 35 | 998.1 |
| 20260504181513 | 19 | 207 | 0.0 | 6.4 | 0.00 | 0.00 | 0.00 | 35 | 998.3 |
| 20260504180008 | 19 | 193 | 0.0 | 4.8 | 0.00 | 0.00 | 0.00 | 35 | 998.5 |
| 20260504174507 | 20 | 157 | 0.0 | 3.2 | 0.00 | 0.00 | 0.00 | 35 | 998.6 |
| 20260504173006 | 20 | 181 | 0.0 | 4.8 | 0.00 | 0.00 | 0.00 | 35 | 998.8 |
| 20260504171506 | 21 | 6 | 1.6 | 4.8 | 0.00 | 0.00 | 0.00 | 30 | 998.8 |
| 20260504130127 | 12 | 143 | 3.2 | 9.7 | 0.00 | 0.00 | 0.00 | 48 | 1000.2 |
| 20260504081600 | 15 | 89 | 1.6 | 11.3 | 0.00 | 0.00 | 0.00 | 34 | 999.9 |
| 20260504044544 | 16 | 53 | 0.0 | 6.4 | 0.00 | 0.00 | 0.00 | 28 | 999.9 |
| 20260504043037 | 16 | 37 | 0.0 | 1.6 | 0.00 | 0.00 | 0.00 | 28 | 1000.1 |
| 20260504041535 | 16 | 23 | 0.0 | 1.6 | 0.00 | 0.00 | 0.00 | 30 | 1000.0 |
| 20260504040044 | 16 | 350 | 0.0 | 3.2 | 0.00 | 0.00 | 0.00 | 30 | 1000.0 |
| 20260504034533 | 17 | 102 | 0.0 | 0.0 | 0.00 | 0.00 | 0.00 | 29 | 999.9 |
| 20260504033033 | 17 | 111 | 0.0 | 0.0 | 0.00 | 0.00 | 0.00 | 27 | 999.9 |
| 20260504031533 | 18 | 111 | 0.0 | 0.0 | 0.00 | 0.00 | 0.00 | 25 | 999.6 |
| 20260504030031 | 20 | 111 | 0.0 | 1.6 | 0.00 | 0.00 | 0.00 | 24 | 999.7 |
| 20260504024531 | 20 | 333 | 0.0 | 1.6 | 0.00 | 0.00 | 0.00 | 22 | 999.6 |
| 20260504023031 | 20 | 229 | 0.0 | 0.0 | 0.00 | 0.00 | 0.00 | 21 | 999.5 |
| 20260504021530 | 21 | 229 | 0.0 | 6.4 | 0.00 | 0.00 | 0.00 | 22 | 999.6 |
| 20260504020028 | 22 | 174 | 0.0 | 3.2 | 0.00 | 0.00 | 0.00 | 20 | 999.6 |
| 20260504014528 | 22 | 233 | 0.0 | 1.6 | 0.00 | 0.00 | 0.00 | 20 | 999.7 |
| 20260504013031 | 23 | 146 | 0.0 | 1.6 | 0.00 | 0.00 | 0.00 | 17 | 999.8 |